STARLINK-35707 (66533 NORAD) Tracking and Keplerian Element Data

This shows tracking and keplerian element data for the satellite.

Feedback or suggestion? Click here.




ElementValue
Catalog66533
NameSTARLINK-35707
Epoch Orbit489
Epoch Day354.08571834
Epoch Year2025
RAAN11.4284
Inclination43.0006
Eccentricity0.0001258
Argument of Perigee231.178
Mean Anonmoly128.8965
Mean Motion15.40787091
Decay Rate0.00048385
L11 66533U 25265T 25354.08571834 .00048385 00000+0 11549-2 0 9997
L22 66533 43.0006 11.4284 0001258 231.1780 128.8965 15.40787091 4898



Live tracking and technical data element details for STARLINK-35707 (NORAD 66533). STARLINK-35707 can be tracked NOW for your location showing map with azimuth and elevation plus other details from your city location.







IsCatalogInMostPopularTable: catalog: 66533, numindb: 4
Update: records affected: 1



GetName: 66533 STARLINK-35707

Hit Count: updated at: Sun, 08 Feb 2026 07:44:16 GMT